STARLINK-35893

Last updated on Wed Dec 31 2025 00:02:06 GMT+0000 (Coordinated Universal Time)

1 66565U 25268J 25364.58335648 .00071349 00000+0 25810-2 0 9994 2 66565 43.0006 17.1340 0001799 283.6053 61.0094 15.27533415 6026
UTC large
Height (km)
Speed (km/s)
/
Latitude / Longitude
Inclination (degrees)
Orbital Period (minutes)
Azimuth
Elevation
Range (km)
Doppler Factor

Next 0 passes for location: London (51.5072 / 0.1276)

Sorry there are no passes over London.